Location: Poughquag
(41.6090°N, 73.6820°W)
Time: 11:53:28
(UTC-04:00)

A-11 Canister half - Pass Details

Date: 06 June 2020
Orbit: 1527 x 1682 km, 47.3° (Epoch: 06 July)

Event Time Altitude Azimuth Distance (km) Brightness Sun altitude
Rises 04:14:22 0° 191° (S) 4,694 - -10.7°
Exits shadow 04:15:12 - 189° (S) 4,462 11.0 -10.5°
Reaches altitude 10° 04:18:09 10° 179° (S) 3,699 10.6 -10.1°
Maximum altitude 04:25:11 25° 129° (SE) 2,708 10.4 -9.2°
Drops below altitude 10° 04:32:13 10° 79° (E) 3,698 12.1 -8.2°
Sets 04:35:57 0° 67° (ENE) 4,692 13.3 -7.7°
